Location: Brivio
(45.7333°N, 9.4500°E)
Time: 08:21:07
(UTC+00:00)

N. Korean satellite - Pass Details

Date: 16 December 2019
Orbit: 454 x 507 km, 97.2° (Epoch: 27 January)

Event Time Altitude Azimuth Distance (km) Brightness Sun altitude
Rises 05:34:11 0° 8° (N) 2,529 10.1 -13.7°
Reaches altitude 10° 05:36:17 10° 4° (N) 1,638 9.1 -13.4°
Maximum altitude 05:39:43 55° 286° (WNW) 563 6.5 -12.8°
Drops below altitude 10° 05:43:05 10° 208° (SSW) 1,601 9.1 -12.2°
Sets 05:45:07 0° 204° (SSW) 2,465 10.1 -11.9°
